When you browse on this site, cookies collect data to enhance your experience and personalize the content and advertising you see.
Visit our Privacy Policy to learn more. By continuing to use the site, you agree to this use of cookies and data.
  • In Portugal
  • List of Countries
  • For 7 days
  • Water Temperature
  • Satellite Maps
  • Weather Map
  • Weather Widgets
  • user-avatar
    Login

    Hourly Weather Gjirokaster

    Today, 22 July, Monday

    Time Temperature Precipitation Wind Pressure Humidity
    00:00 +17°C° 0 mm 2 mps 656 mmHg 62%
    01:00 +18°C° 0 mm 1 mps 655 mmHg 64%
    02:00 +18°C° 0 mm 1 mps 655 mmHg 63%
    03:00 +18°C° 0 mm 1 mps 655 mmHg 63%
    04:00 +16°C° 0 mm 1 mps 655 mmHg 62%
    05:00 +19°C° 0 mm 1 mps 655 mmHg 58%
    06:00 +21°C° 0 mm 1 mps 656 mmHg 54%
    07:00 +22°C° 0 mm 1 mps 657 mmHg 50%
    08:00 +24°C° 0 mm 1 mps 657 mmHg 45%
    09:00 +25°C° 0 mm 1 mps 657 mmHg 41%
    10:00 +26°C° 0 mm 1 mps 657 mmHg 36%
    11:00 +27°C° 0 mm 2 mps 657 mmHg 35%
    12:00 +27°C° 0 mm 2 mps 658 mmHg 34%
    13:00 +28°C° 0 mm 2 mps 658 mmHg 32%
    14:00 +27°C° 0 mm 2 mps 657 mmHg 35%
    15:00 +27°C° 0 mm 2 mps 657 mmHg 38%
    16:00 +26°C° 0 mm 2 mps 656 mmHg 41%
    17:00 +25°C° 0 mm 2 mps 656 mmHg 47%
    18:00 +23°C° 0 mm 2 mps 655 mmHg 54%
    19:00 +20°C° 0 mm 2 mps 655 mmHg 60%
    20:00 +20°C° 0 mm 2 mps 655 mmHg 61%
    21:00 +19°C° 0 mm 2 mps 654 mmHg 61%
    22:00 +18°C° 0 mm 2 mps 654 mmHg 62%
    23:00 +18°C° 0 mm 2 mps 654 mmHg 62%

    Tomorrow, 23 July, Tuesday

    Time Temperature Precipitation Wind Pressure Humidity
    00:00 +18°C° 0 mm 2 mps 654 mmHg 61%
    01:00 +18°C° 0 mm 2 mps 654 mmHg 60%
    02:00 +18°C° 0 mm 1 mps 653 mmHg 60%
    03:00 +18°C° 0 mm 1 mps 653 mmHg 59%
    04:00 +18°C° 0 mm 1 mps 653 mmHg 59%
    05:00 +19°C° 0 mm 1 mps 653 mmHg 56%
    06:00 +21°C° 0 mm 1 mps 654 mmHg 53%
    07:00 +22°C° 0 mm 1 mps 654 mmHg 50%
    08:00 +24°C° 0 mm 1 mps 655 mmHg 46%
    09:00 +25°C° 0 mm 1 mps 655 mmHg 42%
    10:00 +27°C° 0 mm 1 mps 655 mmHg 38%
    11:00 +27°C° 0 mm 1 mps 655 mmHg 38%
    12:00 +27°C° 0 mm 2 mps 655 mmHg 38%
    13:00 +26°C° 0 mm 2 mps 654 mmHg 38%
    14:00 +26°C° 0 mm 2 mps 654 mmHg 41%
    15:00 +26°C° 0 mm 2 mps 654 mmHg 43%
    16:00 +25°C° 0 mm 2 mps 654 mmHg 46%
    17:00 +24°C° 0 mm 2 mps 653 mmHg 51%
    18:00 +21°C° 0 mm 2 mps 653 mmHg 57%
    19:00 +20°C° 0 mm 2 mps 652 mmHg 62%
    20:00 +19°C° 0 mm 2 mps 652 mmHg 64%
    21:00 +19°C° 0 mm 2 mps 652 mmHg 65%
    22:00 +18°C° 0 mm 2 mps 652 mmHg 66%
    23:00 +18°C° 0 mm 2 mps 652 mmHg 67%

    Day after tomorrow, 24 July, Wednesday

    Time Temperature Precipitation Wind Pressure Humidity
    00:00 +17°C° 0 mm 2 mps 652 mmHg 67%
    01:00 +18°C° 0 mm 1 mps 651 mmHg 67%
    02:00 +17°C° 0 mm 2 mps 651 mmHg 67%
    03:00 +16°C° 0 mm 2 mps 651 mmHg 66%
    04:00 +16°C° 0 mm 2 mps 651 mmHg 66%
    05:00 +17°C° 0 mm 2 mps 651 mmHg 62%
    06:00 +19°C° 0 mm 2 mps 652 mmHg 58%
    07:00 +20°C° 0 mm 2 mps 652 mmHg 53%
    08:00 +22°C° 0 mm 1 mps 653 mmHg 48%
    09:00 +24°C° 0 mm 1 mps 653 mmHg 43%
    10:00 +25°C° 0 mm 1 mps 654 mmHg 38%
    11:00 +26°C° 0 mm 1 mps 654 mmHg 37%
    12:00 +27°C° 0 mm 2 mps 654 mmHg 37%
    13:00 +27°C° 0 mm 2 mps 654 mmHg 36%
    14:00 +27°C° 0 mm 2 mps 654 mmHg 37%
    15:00 +27°C° 0 mm 2 mps 653 mmHg 38%
    16:00 +26°C° 0 mm 2 mps 653 mmHg 39%
    17:00 +25°C° 0 mm 2 mps 653 mmHg 45%
    18:00 +23°C° 0 mm 1 mps 653 mmHg 50%
    19:00 +21°C° 0 mm 1 mps 652 mmHg 56%
    20:00 +21°C° 0 mm 1 mps 652 mmHg 57%
    21:00 +20°C° 0 mm 1 mps 652 mmHg 58%
    22:00 +18°C° 0 mm 2 mps 652 mmHg 59%
    23:00 +18°C° 0 mm 2 mps 652 mmHg 59%

    25 July, Thursday

    Time Temperature Precipitation Wind Pressure Humidity
    00:00 +17°C° 0 mm 2 mps 652 mmHg 59%
    01:00 +17°C° 0 mm 2 mps 652 mmHg 59%
    02:00 +17°C° 0 mm 2 mps 652 mmHg 59%
    03:00 +16°C° 0 mm 2 mps 652 mmHg 60%
    04:00 +16°C° 0 mm 2 mps 652 mmHg 60%
    05:00 +17°C° 0 mm 2 mps 653 mmHg 57%
    06:00 +20°C° 0 mm 1 mps 653 mmHg 54%
    07:00 +21°C° 0 mm 1 mps 654 mmHg 50%
    08:00 +23°C° 0 mm 1 mps 654 mmHg 47%
    09:00 +24°C° 0 mm 1 mps 655 mmHg 44%
    10:00 +25°C° 0 mm 1 mps 655 mmHg 41%
    11:00 +26°C° 0 mm 1 mps 655 mmHg 41%
    12:00 +26°C° 0 mm 2 mps 655 mmHg 40%
    13:00 +26°C° 0 mm 2 mps 655 mmHg 40%
    14:00 +26°C° 0 mm 2 mps 655 mmHg 43%
    15:00 +25°C° 0 mm 2 mps 654 mmHg 45%
    16:00 +25°C° 0 mm 3 mps 654 mmHg 48%
    17:00 +23°C° 0 mm 2 mps 654 mmHg 54%
    18:00 +21°C° 0 mm 2 mps 653 mmHg 60%
    19:00 +20°C° 0 mm 1 mps 653 mmHg 66%
    20:00 +20°C° 0 mm 1 mps 653 mmHg 67%
    21:00 +19°C° 0 mm 1 mps 653 mmHg 69%
    22:00 +18°C° 0 mm 1 mps 653 mmHg 71%
    23:00 +18°C° 0 mm 1 mps 653 mmHg 71%

    26 July, Friday

    Time Temperature Precipitation Wind Pressure Humidity
    00:00 +18°C° 0 mm 1 mps 653 mmHg 71%
    01:00 +18°C° 0 mm 1 mps 652 mmHg 71%
    02:00 +16°C° 0 mm 1 mps 652 mmHg 71%
    03:00 +16°C° 0 mm 1 mps 652 mmHg 71%
    04:00 +16°C° 0 mm 1 mps 652 mmHg 72%
    05:00 +16°C° 0 mm 0 mps 652 mmHg 67%
    06:00 +18°C° 0 mm 0 mps 653 mmHg 63%
    07:00 +19°C° 0 mm 0 mps 653 mmHg 58%
    08:00 +23°C° 0 mm 1 mps 653 mmHg 54%
    09:00 +24°C° 0 mm 1 mps 654 mmHg 51%
    10:00 +25°C° 0 mm 1 mps 654 mmHg 47%
    11:00 +25°C° 0 mm 1 mps 654 mmHg 47%
    12:00 +25°C° 0 mm 2 mps 654 mmHg 47%
    13:00 +25°C° 0 mm 2 mps 653 mmHg 47%
    14:00 +25°C° 0 mm 2 mps 653 mmHg 49%
    15:00 +24°C° 0 mm 2 mps 653 mmHg 50%
    16:00 +24°C° 0 mm 2 mps 652 mmHg 52%
    17:00 +23°C° 0 mm 2 mps 652 mmHg 57%
    18:00 +21°C° 0 mm 1 mps 651 mmHg 62%
    19:00 +20°C° 0 mm 1 mps 651 mmHg 67%
    20:00 +19°C° 0 mm 1 mps 651 mmHg 68%
    21:00 +19°C° 0 mm 1 mps 651 mmHg 70%
    22:00 +18°C° 0 mm 1 mps 651 mmHg 71%
    23:00 +18°C° 0 mm 1 mps 651 mmHg 72%

    27 July, Saturday

    Time Temperature Precipitation Wind Pressure Humidity
    00:00 +18°C° 0 mm 1 mps 651 mmHg 74%
    01:00 +15°C° 0 mm 0 mps 650 mmHg 75%
    02:00 +15°C° 0 mm 0 mps 650 mmHg 75%
    03:00 +15°C° 0 mm 0 mps 650 mmHg 76%
    04:00 +15°C° 0 mm 0 mps 650 mmHg 76%
    05:00 +16°C° 0 mm 0 mps 650 mmHg 71%
    06:00 +18°C° 0 mm 0 mps 651 mmHg 66%
    07:00 +19°C° 0 mm 0 mps 651 mmHg 60%
    08:00 +23°C° 0 mm 1 mps 652 mmHg 56%
    09:00 +24°C° 0 mm 1 mps 652 mmHg 51%
    10:00 +25°C° 0 mm 1 mps 652 mmHg 47%
    11:00 +26°C° 0 mm 2 mps 652 mmHg 45%
    12:00 +26°C° 0 mm 2 mps 652 mmHg 44%
    13:00 +26°C° 0 mm 2 mps 652 mmHg 43%
    14:00 +25°C° 0 mm 2 mps 652 mmHg 45%
    15:00 +25°C° 0 mm 2 mps 651 mmHg 47%
    16:00 +24°C° 0 mm 2 mps 651 mmHg 49%
    17:00 +23°C° 0 mm 2 mps 651 mmHg 55%
    18:00 +21°C° 0 mm 2 mps 650 mmHg 60%
    19:00 +20°C° 0 mm 1 mps 650 mmHg 65%
    20:00 +20°C° 0 mm 1 mps 650 mmHg 66%
    21:00 +19°C° 0 mm 1 mps 650 mmHg 67%
    22:00 +19°C° 0 mm 1 mps 651 mmHg 68%
    23:00 +19°C° 0 mm 1 mps 650 mmHg 69%
    Show more